Regional Weather Roundup
Issued by NWS Jackson, KY

Home | Current Version | Previous Version | Graphics & Text | Print | Product List | Glossary On
Versions: 1 2 3 4 5 6 7 8 9 10 11 12 13 14 15 16 17 18 19 20 21 22 23 24 25 26 27 28 29 30 31 32 33 34 35 36 37 38 39 40 41 42 43 44 45 46 47 48 49 50
000
ASUS43 KJKL 281510
RWRJKL

EAST KENTUCKY HOURLY WEATHER ROUNDUP
NATIONAL WEATHER SERVICE JACKSON KY
1100 AM EDT SAT MAY 28 2016

NOTE: "FAIR" INDICATES FEW OR NO CLOUDS BELOW 12,000 FEET WITH
NO SIGNIFICANT WEATHER AND/OR OBSTRUCTIONS TO VISIBILITY.

* THESE REPORTS ARE NOT UNDER NWS QUALITY CONTROL AND MAY NOT
  REPORT WEATHER SUCH AS PRECIPITATION AND FOG.

KYZ079-080-083-085-087-088-110-112-115-119-120-281600
...EASTERN KENTUCKY...

CITY           SKY/WX    TMP DP  RH WIND       PRES   REMARKS
JACKSON        MOSUNNY   76  65  68 VRB5      30.18R
LONDON         PTSUNNY   78  61  55 SW10      30.17R
SOMERSET*      PTSUNNY   75  63  64 S5        30.16S
MONTICELLO*    CLOUDY    77  65  66 E6        30.17R
WILLIAMSBURG*  SUNNY     77  63  61 S7        30.17S
MIDDLESBORO*   CLOUDY    74  67  77 CALM      30.19S
HARLAN APT*    PTSUNNY   73  63  68 CALM      30.20R
BLACK MTN*       N/A     68  61  77 S3          N/A
PIKE CO APT*     N/A     76  66  71 SE3       30.20R
BIG SANDY APT* PTSUNNY   79  65  60 CALM      30.18S
MOREHEAD APT*  PTSUNNY   77  66  69 S7        30.17S
ASHLAND*       PTSUNNY   79  68  69 CALM      30.13R
$$

KYZ035-036-041-042-044-050-067-078-099-281600
...CENTRAL KENTUCKY...

CITY           SKY/WX    TMP DP  RH WIND       PRES   REMARKS
MT STERLING*   MOSUNNY   79  66  65 W7        30.17R
FLEMING/MASON* PTSUNNY  N/A N/A N/A S8        30.16R
DANVILLE*      PTSUNNY   77  64  65 S9G16     30.15S
RICHMOND*      CLOUDY    77  64  65 S9G17     30.15S
LEXINGTON      MOSUNNY   79  65  62 S14       30.14R
FRANKFORT      CLOUDY    76  66  71 S9        30.11R
LOUISVILLE     CLOUDY    77  66  68 S10       30.08S
LEBANON*       PTSUNNY   75  64  69 S10       30.13R
GLASGOW*       MOSUNNY   77  63  62 S9G17     30.11S
BOWLING GREEN  PTSUNNY   79  66  64 S12       30.09S
$$

KYZ091>093-OHZ055-061-077-WVZ005-015-034-035-042-281600
...SOUTHERN OHIO/WEST VIRGINIA...

CITY           SKY/WX    TMP DP  RH WIND       PRES   REMARKS
COVINGTON      PTSUNNY   78  68  71 S9G16     30.11R
COLUMBUS       PTSUNNY   78  65  63 VRB7      30.12R
DAYTON         CLOUDY    77  66  68 S13       30.12R
WILMINGTON     MOSUNNY   78  66  66 SW9       30.12S
HUNTINGTON     PTSUNNY   79  65  62 SW6       30.15S
CHARLESTON     PTSUNNY   82  64  54 VRB6      30.17R
PINEVILLE*       N/A     79  56  45 MISG      30.26S
BECKLEY        PTSUNNY   76  56  49 MISG      30.25S
BLUEFIELD      PTSUNNY   71  55  56 S6        30.28R
LOGAN CO APT*    N/A     79  64  61 CALM      30.20R
$$

VAZ002-007-008-TNZ017-027-036-066-071-281600
...SOUTHWEST VIRGINIA/EAST TENNESSEE...

CITY           SKY/WX    TMP DP  RH WIND       PRES   REMARKS
WISE*            N/A     73  52  46 S7        30.27R
JONESVILLE*      N/A     77  63  61 CALM      30.22R
ABINGDON*        N/A     78  58  50 SE5       30.23S
BRISTOL        SUNNY     77  63  61 CALM      30.20S
SEVIERVILLE*   PTSUNNY   73  64  73 CALM      30.17S
KNOXVILLE      MOSUNNY   74  68  81 NW5       30.17S
OAK RIDGE      CLOUDY    75  64  68 CALM      30.19S
CROSSVILLE     SUNNY     75  60  59 S7        30.20R
NASHVILLE      CLOUDY    78  63  59 S9        30.10S
$$

...KEY TO REMARKS...
VSB - VISIBILITY IN MILES
WCI - WIND CHILL INDEX
HX  - HEAT INDEX

$$



USA.gov is the U.S. government's official web portal to all federal, state and local government web resources and services.